TimeCST,TemperatureF,Dew PointF,Humidity,Sea Level PressureIn,VisibilityMPH,Wind Direction,Wind SpeedMPH,Gust SpeedMPH,PrecipitationIn,Events,Conditions,WindDirDegrees,DateUTC
12:14 AM,21.2,15.8,80,30.14,10.0,Calm,Calm,-,N/A,,Overcast,0,2013-03-03 06:14:00
12:34 AM,21.2,15.8,80,30.13,10.0,Calm,Calm,-,N/A,,Overcast,0,2013-03-03 06:34:00
12:54 AM,21.2,15.8,80,30.12,10.0,Calm,Calm,-,N/A,,Overcast,0,2013-03-03 06:54:00
1:14 AM,19.4,15.8,86,30.11,10.0,SSE,3.5,-,N/A,,Scattered Clouds,150,2013-03-03 07:14:00
1:54 AM,19.4,15.8,86,30.10,10.0,SSE,3.5,-,N/A,,Mostly Cloudy,150,2013-03-03 07:54:00
2:14 AM,19.4,15.8,86,30.10,10.0,Calm,Calm,-,N/A,,Overcast,0,2013-03-03 08:14:00
2:35 AM,19.4,15.8,86,30.09,10.0,SSE,3.5,-,N/A,,Overcast,160,2013-03-03 08:35:00
2:54 AM,21.2,15.8,80,30.09,10.0,SSE,3.5,-,N/A,,Overcast,150,2013-03-03 08:54:00
3:14 AM,21.2,17.6,86,30.07,10.0,SSE,6.9,-,N/A,,Overcast,150,2013-03-03 09:14:00
3:34 AM,21.2,17.6,86,30.07,10.0,SE,5.8,-,N/A,,Overcast,140,2013-03-03 09:34:00
3:54 AM,21.2,17.6,86,30.07,10.0,SE,5.8,-,N/A,,Overcast,130,2013-03-03 09:54:00
4:14 AM,21.2,17.6,86,30.07,10.0,SE,4.6,-,N/A,,Overcast,130,2013-03-03 10:14:00
4:34 AM,21.2,17.6,86,30.07,10.0,SE,5.8,-,N/A,,Overcast,140,2013-03-03 10:34:00
4:54 AM,21.2,17.6,86,30.08,10.0,ESE,6.9,-,N/A,,Mostly Cloudy,110,2013-03-03 10:54:00
5:14 AM,21.2,17.6,86,30.07,10.0,SE,6.9,-,N/A,,Overcast,140,2013-03-03 11:14:00
5:34 AM,21.2,17.6,86,30.07,10.0,SSE,5.8,-,N/A,,Overcast,160,2013-03-03 11:34:00
5:54 AM,21.2,17.6,86,30.07,10.0,SSE,4.6,-,N/A,,Overcast,160,2013-03-03 11:54:00
6:14 AM,21.2,17.6,86,30.07,10.0,SSE,6.9,-,N/A,,Overcast,160,2013-03-03 12:14:00
6:34 AM,21.2,17.6,86,30.07,10.0,SE,4.6,-,N/A,,Scattered Clouds,140,2013-03-03 12:34:00
6:54 AM,19.4,15.8,86,30.06,10.0,SE,5.8,-,N/A,,Clear,140,2013-03-03 12:54:00
7:14 AM,19.4,15.8,86,30.07,10.0,SSE,5.8,-,N/A,,Clear,150,2013-03-03 13:14:00
7:34 AM,19.4,15.8,86,30.06,10.0,SSE,5.8,-,N/A,,Clear,160,2013-03-03 13:34:00
7:54 AM,19.4,15.8,86,30.06,10.0,SE,6.9,-,N/A,,Clear,140,2013-03-03 13:54:00
8:14 AM,19.4,15.8,86,30.06,10.0,SE,5.8,-,N/A,,Clear,130,2013-03-03 14:14:00
8:34 AM,19.4,15.8,86,30.06,10.0,SE,6.9,-,N/A,,Scattered Clouds,130,2013-03-03 14:34:00
8:54 AM,21.2,15.8,80,30.06,10.0,SE,8.1,-,N/A,,Clear,140,2013-03-03 14:54:00
9:14 AM,23.0,17.6,80,30.05,10.0,SE,10.4,-,N/A,,Mostly Cloudy,130,2013-03-03 15:14:00
9:34 AM,24.8,17.6,74,30.05,10.0,SE,11.5,-,N/A,,Overcast,130,2013-03-03 15:34:00
9:54 AM,24.8,19.4,80,30.04,10.0,SSE,11.5,-,N/A,,Overcast,150,2013-03-03 15:54:00
10:14 AM,24.8,19.4,80,30.04,10.0,SE,10.4,-,N/A,,Mostly Cloudy,140,2013-03-03 16:14:00
10:34 AM,26.6,19.4,74,30.04,10.0,SE,11.5,-,N/A,,Scattered Clouds,140,2013-03-03 16:34:00
10:54 AM,26.6,19.4,74,30.04,10.0,SE,12.7,-,N/A,,Clear,130,2013-03-03 16:54:00
11:14 AM,28.4,19.4,69,30.03,10.0,SE,12.7,-,N/A,,Clear,130,2013-03-03 17:14:00
11:34 AM,28.4,17.6,64,30.03,10.0,SE,12.7,-,N/A,,Clear,130,2013-03-03 17:34:00
11:54 AM,30.2,17.6,60,30.03,10.0,SE,12.7,18.4,N/A,,Clear,140,2013-03-03 17:54:00
12:14 PM,30.2,12.2,47,30.02,10.0,SSE,16.1,20.7,N/A,,Clear,160,2013-03-03 18:14:00
12:34 PM,30.2,14.0,51,30.01,10.0,SSE,17.3,-,N/A,,Clear,150,2013-03-03 18:34:00
12:54 PM,30.2,15.8,55,30.01,10.0,SSE,15.0,-,N/A,,Clear,160,2013-03-03 18:54:00
1:14 PM,30.2,12.2,47,30.00,10.0,SSE,17.3,-,N/A,,Clear,160,2013-03-03 19:14:00
1:34 PM,30.2,12.2,47,29.99,10.0,SE,13.8,-,N/A,,Clear,140,2013-03-03 19:34:00
1:54 PM,30.2,10.4,44,29.98,10.0,SE,16.1,-,N/A,,Clear,140,2013-03-03 19:54:00
2:14 PM,30.2,12.2,47,29.97,10.0,SE,17.3,-,N/A,,Clear,140,2013-03-03 20:14:00
2:34 PM,30.2,12.2,47,29.97,10.0,SE,18.4,21.9,N/A,,Clear,130,2013-03-03 20:34:00
2:54 PM,30.2,12.2,47,29.97,10.0,SSE,18.4,-,N/A,,Clear,150,2013-03-03 20:54:00
3:14 PM,30.2,12.2,47,29.97,10.0,SE,17.3,-,N/A,,Clear,130,2013-03-03 21:14:00
3:34 PM,30.2,12.2,47,29.96,10.0,SE,15.0,-,N/A,,Clear,140,2013-03-03 21:34:00
3:54 PM,30.2,14.0,51,29.95,10.0,SE,16.1,20.7,N/A,,Clear,140,2013-03-03 21:54:00
4:14 PM,30.2,14.0,51,29.95,10.0,SE,15.0,-,N/A,,Clear,140,2013-03-03 22:14:00
4:34 PM,30.2,15.8,55,29.95,10.0,SE,15.0,-,N/A,,Clear,140,2013-03-03 22:34:00
4:54 PM,30.2,15.8,55,29.95,10.0,SE,10.4,16.1,N/A,,Clear,130,2013-03-03 22:54:00
5:14 PM,28.4,15.8,59,29.95,10.0,SE,12.7,-,N/A,,Clear,140,2013-03-03 23:14:00
5:34 PM,28.4,15.8,59,29.95,10.0,ESE,10.4,-,N/A,,Clear,120,2013-03-03 23:34:00
5:54 PM,28.4,17.6,64,29.95,10.0,SE,12.7,-,N/A,,Clear,130,2013-03-03 23:54:00
6:34 PM,26.6,15.8,64,29.95,10.0,ESE,10.4,-,N/A,,Clear,120,2013-03-04 00:34:00
6:54 PM,26.6,15.8,64,29.95,10.0,SE,15.0,19.6,N/A,,Clear,130,2013-03-04 00:54:00
7:13 PM,26.6,15.8,64,29.95,10.0,SE,12.7,19.6,N/A,,Clear,130,2013-03-04 01:13:00
7:34 PM,26.6,15.8,64,29.95,10.0,ESE,13.8,-,N/A,,Clear,120,2013-03-04 01:34:00
7:54 PM,26.6,15.8,64,29.95,10.0,SE,13.8,17.3,N/A,,Clear,130,2013-03-04 01:54:00
8:14 PM,26.6,17.6,69,29.95,10.0,SE,13.8,-,N/A,,Scattered Clouds,130,2013-03-04 02:14:00
8:34 PM,26.6,17.6,69,29.95,10.0,SE,13.8,18.4,N/A,,Mostly Cloudy,130,2013-03-04 02:34:00
8:54 PM,26.6,17.6,69,29.95,10.0,SE,15.0,-,N/A,,Scattered Clouds,130,2013-03-04 02:54:00
9:13 PM,26.6,17.6,69,29.95,10.0,SE,13.8,-,N/A,,Scattered Clouds,130,2013-03-04 03:13:00
9:34 PM,26.6,17.6,69,29.94,10.0,SE,16.1,20.7,N/A,,Mostly Cloudy,130,2013-03-04 03:34:00
9:54 PM,26.6,17.6,69,29.93,10.0,SE,13.8,-,N/A,,Mostly Cloudy,130,2013-03-04 03:54:00
10:14 PM,26.6,17.6,69,29.93,10.0,SE,13.8,-,N/A,,Mostly Cloudy,130,2013-03-04 04:14:00
10:34 PM,26.6,17.6,69,29.93,10.0,SE,15.0,-,N/A,,Mostly Cloudy,130,2013-03-04 04:34:00
10:54 PM,26.6,17.6,69,29.94,10.0,SE,17.3,21.9,N/A,,Overcast,140,2013-03-04 04:54:00
11:14 PM,26.6,17.6,69,29.95,10.0,SSE,15.0,-,N/A,,Overcast,150,2013-03-04 05:14:00
11:34 PM,26.6,17.6,69,29.95,10.0,SSE,15.0,18.4,N/A,,Overcast,150,2013-03-04 05:34:00
11:54 PM,26.6,17.6,69,29.94,10.0,SSE,16.1,20.7,N/A,,Overcast,150,2013-03-04 05:54:00